User: anonymous   Login
Location: Krakow
(50.0830°N, 19.9170°E)
Time: 01:19:47
(UTC+02:00)
Language:

DX 1 - Orbit

View from above orbital plane
View from above orbital plane
View from above satellite
View from above satellite

Ground track
Ground track

The orbit data is extracted from the following two-line orbital elements,

1 40071U 14037C   24151.56644746  .00002390  00000-0  28837-3 0  9997
2 40071  98.3351  63.2510 0007996 169.5543 190.5837 14.84799054534943
Epoch (UTC): 30 May 2024 13:35:41
Eccentricity: 0.0007996
inclination: 98.3351°
perigee height: 608 km
apogee height: 620 km
right ascension of ascending node: 63.2510°
argument of perigee: 169.5543°
revolutions per day: 14.84799054
mean anomaly at epoch: 190.5837°
orbit number at epoch: 53494

The dashed part of the orbit path shows where the satellite is in the earth's shadow,  

DLR